CGMPW CYQM-KBUF

Flight info

Callsign CGMPW
Flight time N/A
Altitude 3000
Route CYQM5/24 DUTIR
Aircraft PC24/L-SBDGIRWY/LB2

Departure

Time N/A
Airport Greater Moncton Roméo LeBlanc International Airport (CYQM)

Arrival

Time 2026-05-06 01:43
Airport Buffalo Niagara International Airport (KBUF)
Time Latitude Longitude Altitude Speed Heading
2026-05-06 01:29 43.35341 -79.17998 2783 ft 145 kts 169°
2026-05-06 01:29 43.34352 -79.17709 2510 ft 152 kts 179°
2026-05-06 01:30 43.33365 -79.17369 2628 ft 139 kts 157°
2026-05-06 01:30 43.32498 -79.16829 2925 ft 138 kts 154°
2026-05-06 01:30 43.31620 -79.16220 3082 ft 145 kts 153°
2026-05-06 01:30 43.30706 -79.15526 2862 ft 159 kts 154°
2026-05-06 01:31 43.29718 -79.14800 2801 ft 152 kts 150°
2026-05-06 01:31 43.28973 -79.13955 3051 ft 141 kts 147°
2026-05-06 01:31 43.28139 -79.13100 2800 ft 152 kts 142°
2026-05-06 01:31 43.27369 -79.12153 2852 ft 144 kts 140°
2026-05-06 01:32 43.26650 -79.11228 3045 ft 142 kts 136°
2026-05-06 01:32 43.25933 -79.10259 3036 ft 152 kts 132°
2026-05-06 01:32 43.25195 -79.09211 2828 ft 144 kts 136°
2026-05-06 01:32 43.24496 -79.08253 2592 ft 140 kts 143°
2026-05-06 01:33 43.23788 -79.07328 2565 ft 142 kts 138°
2026-05-06 01:33 43.23047 -79.06438 2683 ft 141 kts 140°
2026-05-06 01:33 43.22299 -79.05594 3063 ft 138 kts 142°
2026-05-06 01:33 43.21619 -79.04681 3267 ft 138 kts 136°
2026-05-06 01:34 43.20999 -79.03599 3073 ft 148 kts 131°
2026-05-06 01:34 43.20355 -79.02528 3035 ft 142 kts 135°
2026-05-06 01:34 43.19701 -79.01535 2990 ft 141 kts 134°
2026-05-06 01:34 43.19088 -79.00465 2884 ft 142 kts 130°
2026-05-06 01:35 43.18676 -78.99403 3296 ft 115 kts 115°
2026-05-06 01:35 43.18257 -78.98352 3081 ft 142 kts 126°
2026-05-06 01:35 43.17584 -78.97246 2705 ft 154 kts 141°
2026-05-06 01:35 43.16774 -78.96316 2537 ft 157 kts 146°
2026-05-06 01:36 43.15924 -78.95418 2466 ft 146 kts 148°
2026-05-06 01:36 43.15218 -78.94562 2484 ft 139 kts 142°
2026-05-06 01:36 43.14412 -78.93836 2575 ft 140 kts 153°
2026-05-06 01:36 43.13558 -78.93301 2829 ft 139 kts 164°
2026-05-06 01:37 43.12620 -78.92853 2907 ft 146 kts 166°
2026-05-06 01:37 43.11660 -78.92477 3159 ft 140 kts 168°
2026-05-06 01:37 43.10666 -78.92259 3129 ft 151 kts 179°
2026-05-06 01:37 43.09626 -78.92092 2919 ft 150 kts 172°
2026-05-06 01:38 43.08648 -78.91649 2627 ft 154 kts 172°
2026-05-06 01:38 43.07641 -78.91221 2460 ft 150 kts 163°
2026-05-06 01:38 43.06701 -78.90529 2416 ft 150 kts 152°
2026-05-06 01:38 43.05878 -78.89685 2397 ft 150 kts 143°
2026-05-06 01:39 43.05003 -78.88812 2223 ft 155 kts 146°
2026-05-06 01:39 43.04194 -78.87946 2338 ft 137 kts 149°
2026-05-06 01:39 43.03576 -78.87011 2228 ft 135 kts 122°
2026-05-06 01:39 43.03136 -78.85864 2404 ft 138 kts 127°
2026-05-06 01:40 43.02602 -78.84706 2581 ft 146 kts 122°
2026-05-06 01:40 43.02091 -78.83526 2962 ft 142 kts 122°
2026-05-06 01:40 43.01613 -78.82307 3222 ft 150 kts 123°
2026-05-06 01:40 43.01081 -78.81053 3286 ft 156 kts 121°
2026-05-06 01:41 43.00613 -78.79678 3203 ft 161 kts 120°
2026-05-06 01:41 43.00027 -78.78438 3427 ft 135 kts 120°
2026-05-06 01:41 42.99516 -78.77329 3363 ft 147 kts 140°
2026-05-06 01:41 42.98757 -78.76302 2990 ft 160 kts 139°
2026-05-06 01:42 42.98003 -78.75195 2767 ft 157 kts 143°
2026-05-06 01:42 42.97208 -78.74281 1975 ft 135 kts 154°
2026-05-06 01:42 42.96427 -78.73774 1354 ft 112 kts 164°
2026-05-06 01:42 42.95819 -78.73531 1263 ft 75 kts 179°
2026-05-06 01:43 42.95383 -78.73500 1188 ft 55 kts 191°
2026-05-06 01:43 42.95040 -78.73550 1116 ft 37 kts 207°
2026-05-06 01:43 42.94943 -78.73555 994 ft 17 kts 205°
2026-05-06 01:43 42.94840 -78.73667 842 ft 13 kts 226°
2026-05-06 01:44 42.94815 -78.73692 725 ft 2 kts 212°
2026-05-06 01:44 42.94813 -78.73696 715 ft 0 kts 215°